This is the latest recevied weather packets stored in our database for station/object KG5CK-1. If no packets are shown the sender has not sent any weather packets the latest 1 day(s).
| Time | Temp. | Humidity | Pressure | Rain* | Wind** | Luminosity | Snow |
|---|---|---|---|---|---|---|---|
| 1778079003 | 12.22° C | 85% | 1010.7 hPa | 0 mm | 0.89 m/s, 55° | - | - |
| 1778078943 | 12.22° C | 85% | 1010.7 hPa | 0 mm | 0.89 m/s, 55° | - | - |
| 1778078823 | 12.22° C | 85% | 1010.7 hPa | 0 mm | 0.89 m/s, 55° | - | - |
| 1778078703 | 12.22° C | 85% | 1010.8 hPa | 0 mm | 1.79 m/s, 43° | - | - |
| 1778078643 | 12.22° C | 85% | 1010.8 hPa | 0 mm | 1.79 m/s, 43° | - | - |
| 1778078581 | 12.22° C | 85% | 1010.8 hPa | 0 mm | 1.79 m/s, 43° | - | - |
| 1778078343 | 12.22° C | 85% | 1010.7 hPa | 0 mm | 1.79 m/s, 6° | - | - |
| 1778078224 | 12.22° C | 85% | 1010.7 hPa | 0 mm | 1.79 m/s, 6° | - | - |
| 1778077743 | 12.22° C | 85% | 1010.7 hPa | 0 mm | 1.34 m/s, 3° | - | - |
| 1778077683 | 12.22° C | 85% | 1010.7 hPa | 0 mm | 1.34 m/s, 3° | - | - |
| 1778077503 | 12.22° C | 85% | 1010 hPa | 0 mm | 1.79 m/s, 3° | - | - |
| 1778077323 | 12.22° C | 85% | 1010 hPa | 0 mm | 1.79 m/s, 3° | - | - |
| 1778077263 | 12.22° C | 85% | 1010 hPa | 0 mm | 1.79 m/s, 3° | - | - |
| 1778077203 | 12.22° C | 85% | 1010.1 hPa | 0 mm | 0.89 m/s, 32° | - | - |
| 1778076963 | 12.22° C | 85% | 1010.1 hPa | 0 mm | 1.34 m/s, 69° | - | - |
| 1778076903 | 12.22° C | 85% | 1010.1 hPa | 0 mm | 1.34 m/s, 69° | - | - |
| 1778076843 | 12.22° C | 85% | 1010.1 hPa | 0 mm | 1.34 m/s, 69° | - | - |
| 1778076783 | 12.22° C | 85% | 1010.1 hPa | 0 mm | 1.34 m/s, 69° | - | - |
| 1778076723 | 12.22° C | 85% | 1010.1 hPa | 0 mm | 1.34 m/s, 69° | - | - |
| 1778076603 | 12.22° C | 85% | 1010 hPa | 0 mm | 1.79 m/s, 10° | - | - |
| 1778076543 | 12.22° C | 85% | 1010 hPa | 0 mm | 1.79 m/s, 10° | - | - |
| 1778076243 | 12.22° C | 86% | 1009.9 hPa | 0 mm | 1.79 m/s, 12° | - | - |
| 1778076183 | 12.22° C | 86% | 1009.9 hPa | 0 mm | 1.79 m/s, 12° | - | - |
| 1778076123 | 12.22° C | 86% | 1009.9 hPa | 0 mm | 1.79 m/s, 12° | - | - |
| 1778076003 | 12.22° C | 86% | 1009.7 hPa | 0 mm | 0.89 m/s, 7° | - | - |
* Rain latest hour (hover to see other rain measurements)
** Current wind speed in m/s (hover to see current wind gust speed)